Orbital Elements at Epoch 2459200.5 (2020-Dec-17.0) TDB
Reference: JPL 30 (heliocentric ecliptic J2000)
Element | Value | Uncertainty (1-sigma) | Units |
e | .1621888829834519 | 4.2989e-08 | |
a | 3.235769586870159 | 1.6879e-08 | au |
q | 2.710963731983862 | 1.4102e-07 | au |
i | 3.102651699216981 | 3.6145e-06 | deg |
node | 78.02709241851771 | 9.3163e-05 | deg |
peri | 301.4079469723379 | 9.3903e-05 | deg |
M | 122.4548516076291 | 1.3004e-05 | deg |
tp | 2458477.333490148730 (2018-Dec-24.83349015) | 7.4471e-05 | TDB |
period | 2126.007586703389 5.82 | 1.6635e-05 4.554e-08 | d yr |
n | .1693314747565036 | 1.3249e-09 | deg/d |
Q | 3.760575441756456 | 1.9616e-08 | au |
|
| | Orbit Determination Parameters
Additional Information
|